Location: Burleson Fire Department Station 2
(32.5391°N, 97.3075°W)
Time: 00:21:26
(UTC+00:00)

NOAA 15 - Pass Details

Date: 18 December 2025
Orbit: 793 x 810 km, 98.5° (Epoch: 20 January)

Event Time Altitude Azimuth Distance (km) Brightness Sun altitude
Rises 00:27:51 0° 147° (SSE) 3,312 7.7 -12.7°
Reaches altitude 10° 00:30:17 10° 140° (SE) 2,383 6.8 -13.2°
Maximum altitude 00:35:11 40° 72° (ENE) 1,166 5.0 -14.2°
Drops below altitude 10° 00:40:05 10° 4° (N) 2,387 6.8 -15.2°
Sets 00:42:32 0° 357° (N) 3,318 7.6 -15.7°
